Regional Weather Roundup
Issued by NWS

Home | Current Version | Previous Version | Graphics & Text | Print | Product List | Glossary On
Versions: 1 2 3 4 5 6 7 8 9 10 11 12 13 14 15 16 17 18 19 20 21 22 23 24 25 26 27 28 29 30 31 32 33 34 35 36 37 38 39 40 41 42 43 44 45 46 47 48 49 50
060
ASUS44 KLIX 300810
RWRLA
LOUISIANA WEATHER ROUNDUP
NATIONAL WEATHER SERVICE NEW ORLEANS LA
300 AM CDT SAT AUG 30 2014

NOTE: "FAIR" INDICATES FEW OR NO CLOUDS BELOW 12,000 FEET WITH NO
      SIGNIFICANT WEATHER AND/OR OBSTRUCTIONS TO VISIBILITY.
      SKY/WX - SKY CONDITION AND SIGNIFICANT WEATHER.
      TMP - AIR TEMPERATURE.    DP   - DEWPOINT TEMPERATURE.
      RH  - RELATIVE HUMIDITY.  PRES - PRESSURE.
      HX  - HEAT INDEX.         WCI  - WIND CHILL INDEX.

*  THESE STATIONS ARE NOT NWS OR FAA STATIONS AND ARE NOT UNDER
   NWS QUALITY CONTROL.

LAZ040-048-061>063-065-066-069-300900-
SOUTHEAST LOUISIANA

CITY           SKY/WX    TMP DP  RH WIND       PRES   REMARKS
N.O. AUDUBON     N/A     81  76  85 MISG        N/A
N.O. INTL ARPT CLOUDY    79  75  87 SE7       29.99S
N.O. LAKEFRONT MOCLDY    80  75  84 SE10      30.00S
N.O. DOWNTOWN* FAIR      81  72  74 SE5       30.00S
SLIDELL        CLOUDY    78  75  90 SE5       29.99F
BATON ROUGE    CLOUDY    75  74  96 E5        30.00R
BOOTHVILLE     CLOUDY    79  75  87 SE8       30.01F
BELLE CHASSE   MOCLDY    80  75  84 SE6       29.99R
BOGALUSA*        N/A     77  73  87 CALM      30.02S
GALLIANO*      NOT AVBL
NEW ROADS*     FAIR      75  73  95 CALM      29.99S
GONZALES*      LGT RAIN  76  76 100 CALM      30.00R
HAMMOND*       CLOUDY    77  72  83 CALM      30.02R
HOUMA*         CLOUDY    77  74  90 SE3       29.99S
PORT FOURCHON* MOSUNNY   82  77  83 SE16G22   30.00F

$$

LAZ041-044-053-054-300900-
SOUTHWEST LOUISIANA

CITY           SKY/WX    TMP DP  RH WIND       PRES   REMARKS
LAKE CHARLES   LGT RAIN  77  75  93 E6        29.93F
LAFAYETTE      CLOUDY    75  73  93 VRB3      29.97S
PATTERSON        N/A     75  73  94 NE6       30.01S
SALT POINT       N/A     80  77  90 CALM      29.96F
NEW IBERIA     CLOUDY    76  73  91 E9        29.97S
CHENAULT AIRPK RAIN      76  74  91 E3        29.95S

$$

LAZ027-028-300900-
CENTRAL LOUISIANA

CITY           SKY/WX    TMP DP  RH WIND       PRES   REMARKS
FORT POLK      CLOUDY    75  73  93 SE7       29.96S
ALEXANDRIA INT CLOUDY    76  74  93 SE6       29.96S
ALEXANDRIA     CLOUDY    76  73  91 CALM      29.99S

$$

LAZ001-002-300900-
NORTHWEST LOUISIANA

CITY           SKY/WX    TMP DP  RH WIND       PRES   REMARKS
SHREVEPORT     CLOUDY    76  73  91 SE7       29.95S
BARKSDALE AFB  CLOUDY    76  72  88 SE9       29.96F
DTN SHREVEPORT CLOUDY    76  73  91 SE5       29.96S

$$

LAZ014-016-300900-
NORTHEAST LOUISIANA

CITY           SKY/WX    TMP DP  RH WIND       PRES   REMARKS
MONROE         LGT RAIN  76  73  91 S3        30.00S
TALLULAH       CLOUDY    76  73  91 S3        30.00S

$$




USA.gov is the U.S. government's official web portal to all federal, state and local government web resources and services.